Location: Newark
(40.3500°N, 15.2333°E)
Time: 14:57:19
(UTC+00:00)

Altair - Pass Details

Date: 23 January 2020
Orbit: 1502 x 1682 km, 47.2° (Epoch: 22 February)

Event Time Altitude Azimuth Distance (km) Brightness Sun altitude
Rises 06:33:18 0° 206° (SSW) 4,841 10.2 2.1°
Reaches altitude 10° 06:36:38 10° 199° (SSW) 3,878 9.8 2.6°
Maximum altitude 06:45:42 41° 134° (SE) 2,269 9.4 4.2°
Drops below altitude 10° 06:54:54 10° 69° (ENE) 3,948 10.3 5.7°
Sets 06:58:18 0° 62° (ENE) 4,935 10.6 6.2°
